Havre, MT

1:27 AM MDT on June 25, 2017 (GMT -0600)
Havre City-County

Weather History for KHVR - April, 2013

Change the Weather History Date:

Monday, April 8, 2013

  Actual Average Record
Temperature  
Mean Temperature 26 °F 42 °F  
Max Temperature 35 °F 55 °F 83 °F (1977)
Min Temperature 17 °F 29 °F 6 °F (1982)
Degree Days  
Heating Degree Days 39 23  
Month to date heating degree days 181 193  
Since 1 July heating degree days 7044 7311  
Cooling Degree Days 0 0  
Month to date cooling degree days 0 0  
Year to date cooling degree days 0 0  
Moisture  
Dew Point 7 °F    
Average Humidity 52    
Maximum Humidity 71    
Minimum Humidity 32    
Precipitation  
Precipitation T in 0.02 in 0.49 in (1933)
Month to date precipitation T 0.18  
Year to date precipitation 1.92 1.33  
Snow  
Snow T in 0.10 in 5.60 in (1975)
Month to date snowfall T 1.2  
Since 1 July snowfall 47.0 35.4  
Snow Depth 0.00 in    
Sea Level Pressure  
Sea Level Pressure 30.30 in    
Wind  
Wind Speed 10 mph (NE)    
Max Wind Speed 20 mph    
Max Gust Speed 22 mph    
Visibility 9 miles    
Events Snow    
T = Trace of Precipitation, MM = Missing Value Source: NWS Daily Summary

Daily Weather History Graph

Daily Weather History Graph

Search for Another Location

Airport or City:

Trip Planner

Search our weather history database for the weather conditions in past years. The results will help you decide how hot, cold, wet, or windy it might be!

Date:

Astronomy

Apr. 08, 2013 Rise Set
Actual Time 6:41 AM MDT 8:00 PM MDT
Civil Twilight 6:09 AM MDT 8:32 PM MDT
Nautical Twilight 5:30 AM MDT 9:12 PM MDT
Astronomical Twilight 4:48 AM MDT 9:54 PM MDT
Moon 5:40 AM MDT (4/8) 6:34 PM MDT (4/8)
Length of Visible Light 14h 23m
Length of Day
13h 18m
Waning Crescent, 3% of the Moon is Illuminated
Apr 8
Waning Crescent
Apr 10
New
Apr 18
First Quarter
Apr 25
Full
May 2
Last Quarter

Hourly Weather History & Observations

Time (MDT) Temp. Windchill Dew Point Humidity Pressure Visibility Wind Dir Wind Speed Gust Speed Precip Events Conditions
12:53 AM 24.1 °F 10.1 °F 16.0 °F 71% 30.05 in 9.0 mi NE 18.4 mph - 0.00 in Snow Light Snow
1:53 AM 21.9 °F 8.2 °F 14.0 °F 72% 30.08 in 8.0 mi NE 16.1 mph - 0.00 in Snow Light Snow
2:35 AM 19.4 °F 5.0 °F 10.4 °F 68% 30.03 in 9.0 mi NE 16.1 mph - 0.00 in Snow Light Snow
2:53 AM 19.9 °F 5.2 °F 9.0 °F 62% 30.11 in 9.0 mi NE 17.3 mph - 0.00 in Snow Light Snow
3:53 AM 19.0 °F 6.1 °F 7.0 °F 59% 30.13 in 9.0 mi NE 12.7 mph - 0.00 in Snow Light Snow
4:53 AM 17.6 °F 8.2 °F 3.2 °F 53% 30.09 in 9.0 mi NE 6.9 mph - N/A Snow Light Snow
5:53 AM 18.0 °F 4.8 °F 6.1 °F 60% 30.20 in 9.0 mi NE 12.7 mph - 0.00 in Snow Light Snow
6:53 AM 18.0 °F 6.1 °F 6.1 °F 60% 30.23 in 9.0 mi NE 10.4 mph - 0.00 in Snow Light Snow
7:53 AM 19.0 °F 6.8 °F 5.0 °F 54% 30.27 in 9.0 mi NE 11.5 mph - 0.00 in Snow Light Snow
8:53 AM 21.0 °F 8.6 °F 6.1 °F 53% 30.30 in 9.0 mi NE 12.7 mph - 0.00 in Snow Light Snow
9:53 AM 21.9 °F 10.4 °F 5.0 °F 48% 30.31 in 9.0 mi NE 11.5 mph - 0.00 in Snow Light Snow
10:53 AM 24.1 °F 16.0 °F 6.1 °F 46% 30.33 in 9.0 mi ENE 6.9 mph - 0.00 in Snow Light Snow
11:53 AM 27.0 °F 16.7 °F 7.0 °F 43% 30.34 in 9.0 mi NE 11.5 mph - 0.00 in Snow Light Snow
12:53 PM 30.0 °F 22.4 °F 7.0 °F 38% 30.35 in 9.0 mi NE 8.1 mph - 0.00 in Snow Light Snow
1:53 PM 30.0 °F 22.4 °F 8.1 °F 40% 30.35 in 9.0 mi East 8.1 mph - 0.00 in Snow Light Snow
2:53 PM 33.1 °F 24.4 °F 8.1 °F 35% 30.35 in 9.0 mi North 11.5 mph - 0.00 in Snow Light Snow
3:53 PM 33.1 °F 26.1 °F 7.0 °F 34% 30.35 in 9.0 mi NNE 8.1 mph - 0.00 in Snow Light Snow
4:53 PM 33.1 °F 25.5 °F 7.0 °F 34% 30.36 in 9.0 mi NNE 9.2 mph - 0.00 in Snow Light Snow
5:53 PM 34.0 °F 28.0 °F 6.1 °F 31% 30.38 in 9.0 mi NNE 6.9 mph - 0.00 in Snow Light Snow
6:53 PM 32.0 °F 23.6 °F 6.1 °F 34% 30.40 in 9.0 mi NE 10.4 mph - 0.00 in Snow Light Snow
7:53 PM 28.9 °F 21.9 °F 6.1 °F 38% 30.42 in 9.0 mi NE 6.9 mph - 0.00 in Snow Light Snow
8:53 PM 25.0 °F 16.3 °F 7.0 °F 46% 30.45 in 9.0 mi ENE 8.1 mph - 0.00 in Snow Light Snow
9:53 PM 23.0 °F 15.8 °F 9.0 °F 55% 30.48 in 10.0 mi East 5.8 mph - 0.00 in   Clear
10:53 PM 19.9 °F 11.1 °F 9.0 °F 62% 30.48 in 10.0 mi East 6.9 mph - 0.00 in   Clear
11:53 PM 19.0 °F 10.0 °F 8.1 °F 62% 30.49 in 10.0 mi East 6.9 mph - N/A   Clear